シューメーカー-レヴィ第6彗星

181P/Shoemaker-Levy 6 (2014)

English version
Home page
Updated on July 20, 2014

---------------------------------------------------------------------

・ プロフィール

・ 写真集

・ 軌道要素

Epoch 2014 May 23.0 TT = JDT 2456800.5
T 2014 June 10.32040 TT                                 MPC
q   1.1235693            (2000.0)            P               Q
n   0.13103065     Peri.  333.79299     +0.96825181     -0.17498032
a   3.8390237      Node    37.67918     +0.24776754     +0.76651080
e   0.7073294      Incl.   16.98172     -0.03316126     +0.61793453
P   7.52
From 67 observations 1991 Nov. 27-2014 June 15, mean residual 0".8.
     Nongravitational parameters A1 = -0.38, A2 = -0.0084.

・ 星図

・ 光度変化

        m1 = 13 + 5 logΔ + 40 log r

---------------------------------------------------------------------

軌道要素はM.P.E.C. 2014-N57に掲載されたものです。
星図はステラナビゲータ Ver.8 (アストロアーツ) で作成したものです。
光度グラフはComet for Windowsで作成したものです。

---------------------------------------------------------------------

Copyright(C) Seiichi Yoshida (comet@aerith.net). All rights reserved.